User: anonymous   Login
Location: Cleveland
(41.4990°N, 81.6960°W)
Time: 07:19:26
(UTC-05:00)
Language:

N. Korean satellite - Orbit

View from above orbital plane
View from above orbital plane
View from above satellite
View from above satellite

Ground track
Ground track

The orbit data is extracted from the following two-line orbital elements,

1 39026U 12072A   22332.54588311  .00019622  00000-0  44501-3 0  9996
2 39026  97.2797 322.1025 0023673 290.6195  69.2514 15.42809259554164
Epoch (UTC): 28 November 2022 13:06:04
Eccentricity: 0.0023673
inclination: 97.2797°
perigee height: 421 km
apogee height: 454 km
right ascension of ascending node: 322.1025°
argument of perigee: 290.6195°
revolutions per day: 15.42809259
mean anomaly at epoch: 69.2514°
orbit number at epoch: 55416

The dashed part of the orbit path shows where the satellite is in the earth's shadow,  

DLR